map of KNQX home
KNQX - Airport
Location
City:  Key West, Florida, United States
Name:NAS Key West
Old (Alt.):Boca Chica Field
ICAO:KNQX
FAA LID:NQX

Details
Type:Airport (Airfield)
Use:Military
Latitude:2434'29"N (24.574637)
Longitude:8141'12"W (-81.686644)
Datum:WGS 1984
Elevation:5 ft (2 m)
Variation:5.68W (WMM2015 magnetic declination)
-0.11 annual change
Runways:3
Longest:10001 × 200 ft (3048 × 61 m), paved

Time
Time Zone:UTC-5 (DST-4)
Local Time:

Weather
METAR:KNQX 220853Z AUTO 16005KT 10SM CLR 26/23 A2996 RMK AO2 SLP143 P0003 60003 T02610233 58012 TSNO $

Related Locations
Nearby:
Farthest:CCK: 11573 mi / 18624 km
West Island (Pulau Panjang) [Cocos (Keeling) Islands], CC

Find:

   beyond  
but within

Other Information
Maps:
NOTAMs:
Links:
Sources:

  
  • flag of United States
  • flag of Florida
  • flag of Conch Republic
  • flag of KNQX
  

Airport Diagram

Airport diagram for KNQX

Airport diagram PDF

Sectional Chart

Flight Planning
at skyvector.com

Satellite Image

Google Maps Satellite view

 

Copyright © 2004-2018 Karl L. Swartz. All rights reserved.
The Great Circle Mapper name and logo are trademarks of the Great Circle Mapper.
All other trademarks mentioned herein belong to their respective owners.
Please see credits for attibutions and further copyright information.

  Follow gcmap on Facebook Follow gcmap on Twitter Follow gcmap on Google+ GCmap on LinkedIn

hCard Microformat

Geo Microformat